{"data":{"norad_id":64938,"epoch":"2026-09-20T14:42:50.811840Z","epoch_age_seconds":114401,"freshness":"FRESH","line1":"1 64938U 25158G   26263.61308810  .00013947  00000+0  43350-3 0  9998","line2":"2 64938  97.2850 121.9168 0001337  65.1667 294.9715 15.33448083 64721","mean_motion":15.33448083,"eccentricity":0.0001337,"inclination_deg":97.285,"raan_deg":121.9168,"arg_perigee_deg":65.1667,"mean_anomaly_deg":294.9715,"bstar":0.0004335,"rev_number":6472,"period_min":93.906015858249,"perigee_km":464.61900284165,"apogee_km":466.44900046749,"semimajor_km":6843.6710016546,"source":"CELESTRAK","updated_at":"2026-09-21T09:00:35.487126Z"}}